Shymkent Airport

Airport
ICAO code: 
UAII
IATA Code: 
CIT
Summary
ICAO Region: 
APAC
Territory: 
Location: 
Shymkent,
Serving: 
Shymkent
Elevation: 
1384 ft
Coordinates: 
Aerial View: 
42° 21' 47.197" N, 69° 28' 46.556" E
Airport BS: 
Bird Strike
Airport CFIT: 
Altimeter Temperature Error Correction
Airport WX: 
Fog
Metar
Observation
UAII 191630Z 03003MPS 010V070 9999 FEW050CB 22/07 Q1014 NOSIG RMK QFE725/0967
Station
Shymkent
Date/Time
2022-05-19 16:30:00
Wind direction
30°
Lowest cloud amount
few clouds
Temperature
22°C
Dew point
7°C
Humidity
37%
QNH
1014 hPa
Weather condition
n/a

Description

International airport serving the city of Shymkent, Kazakhstan.

Climatology

Cold Semi-arid climate (Köppen climate classification BSk). - Hot, sometimes extremely hot summers and cold, sometimes very cold winters. Some snowfall during the winter. Areas featuring cold semi-arid climates are sometimes subject to major temperature swings during a 24 hour period.

Runways

Designator Length Width Surface Rops
10/28 2800 44 CON No/No
Airport map: 
Aerial View: 

SKYbrary Partners:

Safety knowledge contributed by: